Flag for Germany Weather past 2 weeks in Schwäbisch Gmünd, Baden-Württemberg, Germany

Now
41 °F

Sprinkles. Overcast.


Feels Like: 33 °F
Forecast: 41 / 52 °F
Wind: 14 mph from West

Location: Stoetten

Current Time: Mar 30, 2015 at 6:35:06 PM

Latest Report: Mar 30, 2015 at 6:00 PM


Visibility: 37 mi

Pressure: 29.83 "Hg

Humidity: 71%

Dew point: 32 °F

Location of Schwäbisch GmündLocation

Historic Weather in Schwäbisch Gmünd — Graph

°F

Schwäbisch Gmünd temperature yesterday

Maximum temperature yesterday: 48 °F (at 8:00 PM)
Minimum temperature yesterday: 42 °F (at 12:00 AM)
Average temperature yesterday: 45 °F

Past Weeks' High & Low Weather Summary

 TemperatureHumidityPressure
High59 °F (Mar 25, 2:00 PM)100% (Mar 26, 3:00 AM)30.29 "Hg (Mar 26, 3:00 AM)
Low30 °F (Mar 22, 7:00 AM)31% (Mar 25, 3:00 PM)29.53 "Hg (Mar 25, 3:00 PM)
Average42 °F72%30.02 "Hg
* Reported Mar 15 4:00 PM — Mar 30 5:00 PM, Schwäbisch Gmünd, Weather by CustomWeather, © 2015

Note: Actual official high and low records may vary slightly from our data, if they occured in-between our weather recording intervals... More about our weather records

Advertising

Schwäbisch Gmünd weather history for previous 24 hours

 ConditionsComfort  
Time TempWeatherWind HumidityBarometerVisibility
5:00 PM
Mon, Mar 30
41 °FOvercast.16 mph71%29.80 "Hg37 mi
4:00 PM39 °FLow clouds.12 mph92%29.81 "Hg31 mi
3:00 PM36 °FLow clouds.13 mph98%29.81 "Hg12 mi
2:00 PM37 °FFog.8 mph100%29.76 "Hg0 mi
1:00 PM35 °FSleet. Low clouds.16 mph95%29.76 "Hg2 mi
12:00 PM37 °FLight rain. Low clouds.13 mph95%29.71 "Hg6 mi
11:00 AM36 °FLight rain. Dense fog.12 mph100%29.69 "Hg1 mi
10:00 AM40 °FLight rain. Low clouds.14 mph93%29.62 "Hg2 mi
9:00 AM40 °FLow clouds.15 mph96%29.61 "Hg6 mi
8:00 AM40 °FRain. Low clouds.15 mph97%29.59 "Hg3 mi
7:00 AM40 °FLight rain. Low clouds.14 mph97%29.56 "Hg4 mi
6:00 AM40 °FLight rain. Low clouds.14 mph95%29.56 "Hg4 mi
4:00 AM41 °FRain. Low clouds.13 mph98%29.58 "Hg2 mi
3:00 AM44 °FLight rain. Overcast.21 mph84%29.54 "Hg8 mi
2:00 AM44 °FRain. Overcast.18 mph91%29.54 "Hg1 mi
1:00 AM45 °FLight rain. Overcast.18 mph87%29.55 "Hg4 mi
12:00 AM46 °FOvercast.18 mph78%29.55 "Hg43 mi
11:00 PM
Sun, Mar 29
46 °FLight rain. Overcast.18 mph81%29.57 "Hg37 mi
10:00 PM46 °FLight rain. Overcast.17 mph83%29.59 "Hg7 mi
9:00 PM47 °FLight rain. Overcast.15 mph79%29.60 "Hg19 mi
8:00 PM48 °FLight rain. Overcast.16 mph75%29.62 "Hg43 mi
7:00 PM47 °FOvercast.14 mph75%29.64 "Hg47 mi
6:00 PM47 °FLight rain. Overcast.14 mph76%29.67 "Hg47 mi
Weather by CustomWeather, © 2015

See weather overviewHow to use our weather pages